DAL987 KTUS-KPSP

Flight info

Callsign DAL987
Flight time N/A
Altitude 28000
Route BURRO5 GBN KOFFA CURIV RDBUL1
Aircraft B738/M-SDE2E3FGHIRWXY/LB1

Departure

Time 2026-05-05 16:36
Airport Tucson International Airport (KTUS)

Arrival

Time N/A
Airport Palm Springs International Airport (KPSP)
Time Latitude Longitude Altitude Speed Heading
2026-05-05 16:00 32.12026 -110.93923 2596 ft 0 kts 55°
2026-05-05 16:20 32.12019 -110.93958 2590 ft 3 kts 115°
2026-05-05 16:21 32.12035 -110.93977 2584 ft 0 kts 162°
2026-05-05 16:22 32.12029 -110.93975 2587 ft 2 kts 161°
2026-05-05 16:22 32.12009 -110.93986 2594 ft 2 kts 271°
2026-05-05 16:23 32.12032 -110.93998 2587 ft 2 kts 313°
2026-05-05 16:23 32.12033 -110.94000 2588 ft 0 kts 299°
2026-05-05 16:26 32.12032 -110.94039 2587 ft 1 kts 263°
2026-05-05 16:27 32.12031 -110.94048 2590 ft 1 kts 263°
2026-05-05 16:27 32.12030 -110.94059 2588 ft 1 kts 263°
2026-05-05 16:27 32.12029 -110.94071 2591 ft 1 kts 263°
2026-05-05 16:27 32.12027 -110.94086 2585 ft 8 kts 263°
2026-05-05 16:28 32.12052 -110.94214 2589 ft 18 kts 315°
2026-05-05 16:28 32.12139 -110.94316 2590 ft 18 kts 315°
2026-05-05 16:28 32.12230 -110.94422 2587 ft 18 kts 316°
2026-05-05 16:28 32.12320 -110.94528 2582 ft 14 kts 314°
2026-05-05 16:29 32.12334 -110.94544 2581 ft 0 kts 315°
2026-05-05 16:29 32.12367 -110.94584 2575 ft 13 kts 313°
2026-05-05 16:30 32.12374 -110.94594 2577 ft 0 kts 309°
2026-05-05 16:33 32.12378 -110.94599 2571 ft 7 kts 309°
2026-05-05 16:33 32.12381 -110.94684 2576 ft 12 kts 240°
2026-05-05 16:33 32.12317 -110.94740 2575 ft 12 kts 182°
2026-05-05 16:33 32.12257 -110.94692 2579 ft 10 kts 135°
2026-05-05 16:34 32.12244 -110.94677 2578 ft 0 kts 135°
2026-05-05 16:35 32.12130 -110.94541 2585 ft 63 kts 135°
2026-05-05 16:35 32.11614 -110.93941 2601 ft 142 kts 135°
2026-05-05 16:35 32.10815 -110.92953 2896 ft 184 kts 133°
2026-05-05 16:35 32.09841 -110.91745 3145 ft 219 kts 135°
2026-05-05 16:36 32.08737 -110.90412 3480 ft 231 kts 136°
2026-05-05 16:36 32.07616 -110.89121 4210 ft 221 kts 139°
2026-05-05 16:36 32.06516 -110.87980 5074 ft 202 kts 143°
2026-05-05 16:36 32.05399 -110.86970 5585 ft 205 kts 149°
2026-05-05 16:37 32.04169 -110.85998 5760 ft 221 kts 152°
2026-05-05 16:37 32.02812 -110.85042 5989 ft 230 kts 154°
2026-05-05 16:37 32.01404 -110.84154 6484 ft 226 kts 157°
2026-05-05 16:37 32.00001 -110.83355 7186 ft 222 kts 160°
2026-05-05 16:38 31.98607 -110.82623 7868 ft 225 kts 162°
2026-05-05 16:38 31.97076 -110.81884 8018 ft 256 kts 163°
2026-05-05 16:38 31.95199 -110.81068 7081 ft 324 kts 164°
2026-05-05 16:38 31.92810 -110.80145 5863 ft 392 kts 164°
2026-05-05 16:39 31.90141 -110.79224 6101 ft 396 kts 166°
2026-05-05 16:39 31.87620 -110.78432 8017 ft 341 kts 169°
2026-05-05 16:39 31.85515 -110.77824 9680 ft 294 kts 172°
2026-05-05 16:39 31.83464 -110.77337 10059 ft 314 kts 175°
2026-05-05 16:40 31.81161 -110.76967 9711 ft 355 kts 178°
2026-05-05 16:40 31.78575 -110.76828 9430 ft 385 kts 184°
2026-05-05 16:40 31.75892 -110.76974 10042 ft 382 kts 189°
2026-05-05 16:40 31.73334 -110.77346 11441 ft 355 kts 193°
2026-05-05 16:41 31.71316 -110.77769 12825 ft 335 kts 196°